ACA1511 KEWR-CYYZ

Flight info

Callsign ACA1511
Flight time 1h 2m
Altitude 32000
Route GAYEL Q818 WOZEE LINNG3
Aircraft B38M/M-SDE1FGHILORVWXY/HB1

Departure

Time 2026-05-04 20:59
Airport Newark Liberty International Airport (KEWR)

Arrival

Time 2026-05-04 22:01
Airport Toronto Pearson International Airport (CYYZ)
Time Latitude Longitude Altitude Speed Heading
2026-05-04 20:33 40.68132 -74.18740 27 ft 0 kts 288°
2026-05-04 20:47 40.68129 -74.18730 28 ft 4 kts 288°
2026-05-04 20:48 40.68119 -74.18698 28 ft 4 kts 297°
2026-05-04 20:48 40.68104 -74.18671 30 ft 4 kts 326°
2026-05-04 20:48 40.68087 -74.18664 27 ft 0 kts 12°
2026-05-04 20:51 40.68088 -74.18664 27 ft 0 kts 12°
2026-05-04 20:51 40.68097 -74.18662 26 ft 3 kts 12°
2026-05-04 20:51 40.68127 -74.18653 28 ft 6 kts 12°
2026-05-04 20:52 40.68183 -74.18636 25 ft 10 kts 15°
2026-05-04 20:52 40.68245 -74.18569 25 ft 13 kts 71°
2026-05-04 20:52 40.68246 -74.18441 25 ft 15 kts 96°
2026-05-04 20:52 40.68237 -74.18297 25 ft 17 kts 95°
2026-05-04 20:53 40.68238 -74.18138 25 ft 17 kts 90°
2026-05-04 20:53 40.68226 -74.17975 25 ft 14 kts 103°
2026-05-04 20:53 40.68190 -74.17880 26 ft 12 kts 118°
2026-05-04 20:53 40.68152 -74.17770 24 ft 14 kts 110°
2026-05-04 20:54 40.68206 -74.17681 24 ft 15 kts 26°
2026-05-04 20:54 40.68304 -74.17618 24 ft 16 kts 26°
2026-05-04 20:54 40.68410 -74.17550 27 ft 18 kts 25°
2026-05-04 20:54 40.68525 -74.17478 25 ft 19 kts 25°
2026-05-04 20:55 40.68650 -74.17399 26 ft 21 kts 26°
2026-05-04 20:55 40.68784 -74.17313 25 ft 22 kts 25°
2026-05-04 20:55 40.68931 -74.17220 28 ft 24 kts 26°
2026-05-04 20:55 40.69088 -74.17120 24 ft 26 kts 25°
2026-05-04 20:56 40.69253 -74.17015 24 ft 26 kts 26°
2026-05-04 20:56 40.69414 -74.16913 26 ft 25 kts 26°
2026-05-04 20:56 40.69571 -74.16813 24 ft 25 kts 26°
2026-05-04 20:56 40.69719 -74.16719 31 ft 23 kts 26°
2026-05-04 20:57 40.69865 -74.16626 25 ft 22 kts 26°
2026-05-04 20:57 40.69975 -74.16557 23 ft 16 kts 25°
2026-05-04 20:57 40.70053 -74.16502 23 ft 9 kts 46°
2026-05-04 20:57 40.70058 -74.16412 26 ft 12 kts 110°
2026-05-04 20:58 40.69991 -74.16386 21 ft 12 kts 205°
2026-05-04 20:58 40.69801 -74.16508 26 ft 64 kts 206°
2026-05-04 20:58 40.69175 -74.16906 24 ft 133 kts 206°
2026-05-04 20:58 40.68196 -74.17519 282 ft 170 kts 205°
2026-05-04 20:59 40.67076 -74.18210 1021 ft 181 kts 205°
2026-05-04 20:59 40.65912 -74.18731 1582 ft 178 kts 196°
2026-05-04 20:59 40.64625 -74.18902 1822 ft 196 kts 184°
2026-05-04 20:59 40.63187 -74.18907 1991 ft 214 kts 189°
2026-05-04 21:00 40.61740 -74.19422 2353 ft 223 kts 208°
2026-05-04 21:00 40.60316 -74.20382 2983 ft 237 kts 211°
2026-05-04 21:00 40.58855 -74.21411 4025 ft 235 kts 214°
2026-05-04 21:00 40.57728 -74.22896 5105 ft 233 kts 243°
2026-05-04 21:01 40.57390 -74.25012 5827 ft 248 kts 274°
2026-05-04 21:01 40.57935 -74.27178 6796 ft 249 kts 296°
2026-05-04 21:01 40.59004 -74.28965 7883 ft 252 kts 315°
2026-05-04 21:01 40.60562 -74.30127 8672 ft 267 kts 341°
2026-05-04 21:02 40.62428 -74.30405 9634 ft 270 kts 353°
2026-05-04 21:02 40.64351 -74.30493 10295 ft 282 kts 354°
2026-05-04 21:02 40.66376 -74.30573 10724 ft 301 kts 353°
2026-05-04 21:02 40.68535 -74.30724 11066 ft 321 kts 352°
2026-05-04 21:03 40.70799 -74.30915 11461 ft 337 kts 352°
2026-05-04 21:03 40.73178 -74.31120 12062 ft 345 kts 352°
2026-05-04 21:03 40.75584 -74.31302 12876 ft 348 kts 352°
2026-05-04 21:03 40.78051 -74.31481 13664 ft 352 kts 352°
2026-05-04 21:04 40.80489 -74.31654 14365 ft 355 kts 352°
2026-05-04 21:04 40.82965 -74.31826 15066 ft 359 kts 352°
2026-05-04 21:04 40.85478 -74.31999 15773 ft 362 kts 352°
2026-05-04 21:04 40.88004 -74.32172 16467 ft 365 kts 352°
2026-05-04 21:05 40.90553 -74.32346 17132 ft 368 kts 352°
2026-05-04 21:05 40.93132 -74.32521 17817 ft 372 kts 352°
2026-05-04 21:05 40.95736 -74.32699 18420 ft 375 kts 352°
2026-05-04 21:05 40.98353 -74.32877 19015 ft 378 kts 352°
2026-05-04 21:06 41.00956 -74.33055 19591 ft 379 kts 352°
2026-05-04 21:06 41.03599 -74.33233 20196 ft 381 kts 352°
2026-05-04 21:06 41.06259 -74.33413 20769 ft 383 kts 352°
2026-05-04 21:06 41.08933 -74.33592 21309 ft 386 kts 352°
2026-05-04 21:07 41.11620 -74.33774 21860 ft 388 kts 352°
2026-05-04 21:07 41.14321 -74.33955 22419 ft 390 kts 352°
2026-05-04 21:07 41.17041 -74.34138 22968 ft 392 kts 352°
2026-05-04 21:07 41.19775 -74.34322 23467 ft 394 kts 352°
2026-05-04 21:08 41.22522 -74.34505 23927 ft 396 kts 352°
2026-05-04 21:08 41.25281 -74.34690 24373 ft 398 kts 352°
2026-05-04 21:08 41.28053 -74.34875 24806 ft 400 kts 352°
2026-05-04 21:08 41.30802 -74.35058 25232 ft 402 kts 352°
2026-05-04 21:09 41.33608 -74.35245 25664 ft 404 kts 352°
2026-05-04 21:09 41.36407 -74.35541 26068 ft 402 kts 345°
2026-05-04 21:09 41.39018 -74.36744 26441 ft 396 kts 328°
2026-05-04 21:09 41.41223 -74.38918 26767 ft 395 kts 313°
2026-05-04 21:10 41.42930 -74.41795 27141 ft 396 kts 304°
2026-05-04 21:10 41.44447 -74.44875 27502 ft 399 kts 302°
2026-05-04 21:10 41.45913 -74.48034 27881 ft 401 kts 301°
2026-05-04 21:10 41.47345 -74.51231 28252 ft 403 kts 301°
2026-05-04 21:11 41.48768 -74.54461 28595 ft 405 kts 301°
2026-05-04 21:11 41.50172 -74.57683 28965 ft 406 kts 300°
2026-05-04 21:11 41.51608 -74.61001 29296 ft 408 kts 300°
2026-05-04 21:11 41.53007 -74.64244 29632 ft 410 kts 300°
2026-05-04 21:12 41.54438 -74.67564 29957 ft 412 kts 300°
2026-05-04 21:12 41.55868 -74.70888 30326 ft 412 kts 301°
2026-05-04 21:12 41.57291 -74.74200 30724 ft 411 kts 301°
2026-05-04 21:12 41.58714 -74.77515 31109 ft 410 kts 301°
2026-05-04 21:13 41.60127 -74.80814 31523 ft 409 kts 301°
2026-05-04 21:13 41.61537 -74.84109 31830 ft 409 kts 301°
2026-05-04 21:13 41.64327 -74.90639 31866 ft 405 kts 301°
2026-05-04 21:14 41.67121 -74.97194 31862 ft 405 kts 301°
2026-05-04 21:14 41.69903 -75.03734 31871 ft 405 kts 301°
2026-05-04 21:15 41.72673 -75.10261 31857 ft 405 kts 301°
2026-05-04 21:15 41.75459 -75.16840 31864 ft 406 kts 301°
2026-05-04 21:16 41.78245 -75.23432 31858 ft 406 kts 301°
2026-05-04 21:16 41.81026 -75.30029 31857 ft 406 kts 301°
2026-05-04 21:17 41.83803 -75.36629 31852 ft 406 kts 301°
2026-05-04 21:17 41.86576 -75.43236 31837 ft 406 kts 301°
2026-05-04 21:18 41.89345 -75.49845 31841 ft 409 kts 301°
2026-05-04 21:18 41.92124 -75.56495 31840 ft 409 kts 301°
2026-05-04 21:19 41.94907 -75.63169 31842 ft 409 kts 301°
2026-05-04 21:19 41.97664 -75.69799 31828 ft 408 kts 301°
2026-05-04 21:20 42.00432 -75.76467 31834 ft 408 kts 301°
2026-05-04 21:20 42.03199 -75.83149 31823 ft 409 kts 300°
2026-05-04 21:21 42.05966 -75.89847 31829 ft 409 kts 300°
2026-05-04 21:21 42.08733 -75.96559 31820 ft 409 kts 300°
2026-05-04 21:22 42.11478 -76.03232 31819 ft 410 kts 300°
2026-05-04 21:22 42.14235 -76.09949 31811 ft 409 kts 300°
2026-05-04 21:23 42.16704 -76.16861 31824 ft 410 kts 294°
2026-05-04 21:23 42.18949 -76.23957 31805 ft 411 kts 295°
2026-05-04 21:24 42.21213 -76.31007 31801 ft 408 kts 295°
2026-05-04 21:24 42.23459 -76.37997 31786 ft 408 kts 295°
2026-05-04 21:25 42.25717 -76.45038 31784 ft 408 kts 295°
2026-05-04 21:25 42.27969 -76.52080 31773 ft 408 kts 294°
2026-05-04 21:26 42.29836 -76.57934 31778 ft 409 kts 294°
2026-05-04 21:26 42.32086 -76.65001 31775 ft 409 kts 294°
2026-05-04 21:27 42.34332 -76.72078 31777 ft 409 kts 294°
2026-05-04 21:27 42.36572 -76.79154 31774 ft 409 kts 294°
2026-05-04 21:28 42.38795 -76.86196 31779 ft 409 kts 294°
2026-05-04 21:28 42.41029 -76.93288 31766 ft 410 kts 294°
2026-05-04 21:29 42.43259 -77.00386 31760 ft 410 kts 294°
2026-05-04 21:29 42.45474 -77.07499 31758 ft 410 kts 294°
2026-05-04 21:30 42.47671 -77.14575 31757 ft 409 kts 294°
2026-05-04 21:30 42.49876 -77.21696 31756 ft 409 kts 294°
2026-05-04 21:31 42.53175 -77.32386 31764 ft 409 kts 293°
2026-05-04 21:32 42.55363 -77.39496 31759 ft 408 kts 293°
2026-05-04 21:32 42.57547 -77.46614 31752 ft 408 kts 293°
2026-05-04 21:33 42.59725 -77.53732 31737 ft 408 kts 293°
2026-05-04 21:33 42.61882 -77.60805 31731 ft 409 kts 293°
2026-05-04 21:34 42.64054 -77.67941 31732 ft 409 kts 292°
2026-05-04 21:34 42.66194 -77.75105 31732 ft 409 kts 291°
2026-05-04 21:35 42.68203 -77.82327 31769 ft 408 kts 291°
2026-05-04 21:35 42.70210 -77.89507 31770 ft 408 kts 291°
2026-05-04 21:36 42.72226 -77.96736 31751 ft 409 kts 291°
2026-05-04 21:36 42.74243 -78.03991 31760 ft 409 kts 291°
2026-05-04 21:37 42.76239 -78.11189 31145 ft 407 kts 291°
2026-05-04 21:37 42.77234 -78.14783 30669 ft 402 kts 290°
2026-05-04 21:37 42.78202 -78.18288 30438 ft 391 kts 290°
2026-05-04 21:37 42.79147 -78.21711 30086 ft 383 kts 290°
2026-05-04 21:38 42.80094 -78.25150 29441 ft 391 kts 290°
2026-05-04 21:38 42.81049 -78.28621 28829 ft 393 kts 290°
2026-05-04 21:38 42.82010 -78.32116 28307 ft 392 kts 290°
2026-05-04 21:38 42.82962 -78.35587 27794 ft 389 kts 290°
2026-05-04 21:39 42.83905 -78.39028 27271 ft 385 kts 290°
2026-05-04 21:39 42.84837 -78.42433 26771 ft 381 kts 290°
2026-05-04 21:39 42.85757 -78.45799 26253 ft 377 kts 290°
2026-05-04 21:39 42.86669 -78.49143 25749 ft 374 kts 290°
2026-05-04 21:40 42.87558 -78.52407 25275 ft 370 kts 290°
2026-05-04 21:40 42.88452 -78.55692 24795 ft 367 kts 290°
2026-05-04 21:40 42.89336 -78.58945 24304 ft 364 kts 289°
2026-05-04 21:40 42.90212 -78.62172 23831 ft 361 kts 289°
2026-05-04 21:41 42.91082 -78.65378 23374 ft 359 kts 289°
2026-05-04 21:41 42.91945 -78.68565 22847 ft 356 kts 289°
2026-05-04 21:41 42.92799 -78.71720 22356 ft 352 kts 289°
2026-05-04 21:41 42.93950 -78.74654 21818 ft 354 kts 305°
2026-05-04 21:42 42.95475 -78.77228 21403 ft 350 kts 305°
2026-05-04 21:42 42.96995 -78.79803 20983 ft 346 kts 305°
2026-05-04 21:42 42.98509 -78.82345 20564 ft 343 kts 306°
2026-05-04 21:42 43.00016 -78.84860 20137 ft 341 kts 306°
2026-05-04 21:43 43.01523 -78.87367 19729 ft 338 kts 306°
2026-05-04 21:43 43.03015 -78.89848 19328 ft 336 kts 306°
2026-05-04 21:43 43.04506 -78.92328 18921 ft 340 kts 306°
2026-05-04 21:43 43.06019 -78.94847 18526 ft 345 kts 306°
2026-05-04 21:44 43.07527 -78.97358 18120 ft 346 kts 305°
2026-05-04 21:44 43.09054 -78.99903 17682 ft 346 kts 305°
2026-05-04 21:44 43.10575 -79.02442 17271 ft 344 kts 305°
2026-05-04 21:44 43.12093 -79.04976 16864 ft 343 kts 305°
2026-05-04 21:45 43.13601 -79.07496 16503 ft 342 kts 305°
2026-05-04 21:45 43.15108 -79.10012 16277 ft 341 kts 305°
2026-05-04 21:45 43.16612 -79.12528 16203 ft 342 kts 305°
2026-05-04 21:45 43.18115 -79.15044 16007 ft 341 kts 305°
2026-05-04 21:46 43.19613 -79.17554 15763 ft 340 kts 304°
2026-05-04 21:46 43.21106 -79.20057 15497 ft 338 kts 304°
2026-05-04 21:46 43.22591 -79.22551 15227 ft 337 kts 304°
2026-05-04 21:46 43.24052 -79.25004 14961 ft 333 kts 304°
2026-05-04 21:47 43.25502 -79.27441 14686 ft 324 kts 304°
2026-05-04 21:47 43.26893 -79.29780 14433 ft 307 kts 304°
2026-05-04 21:47 43.28210 -79.31998 14200 ft 292 kts 303°
2026-05-04 21:47 43.29426 -79.34173 13950 ft 286 kts 300°
2026-05-04 21:48 43.30578 -79.36405 13602 ft 287 kts 300°
2026-05-04 21:48 43.31734 -79.38648 13225 ft 287 kts 300°
2026-05-04 21:48 43.32886 -79.40884 12834 ft 287 kts 300°
2026-05-04 21:48 43.34042 -79.43128 12373 ft 287 kts 300°
2026-05-04 21:49 43.35201 -79.45357 11913 ft 286 kts 300°
2026-05-04 21:49 43.36344 -79.47550 11441 ft 285 kts 300°
2026-05-04 21:49 43.37487 -79.49744 10959 ft 280 kts 300°
2026-05-04 21:49 43.38612 -79.51904 10505 ft 276 kts 300°
2026-05-04 21:50 43.39729 -79.54051 10049 ft 273 kts 300°
2026-05-04 21:50 43.40830 -79.56172 9597 ft 271 kts 300°
2026-05-04 21:50 43.41923 -79.58278 9108 ft 270 kts 300°
2026-05-04 21:50 43.43263 -79.60101 8589 ft 280 kts 324°
2026-05-04 21:51 43.45157 -79.60870 8271 ft 290 kts 350°
2026-05-04 21:51 43.47208 -79.60650 8137 ft 302 kts
2026-05-04 21:51 43.49209 -79.59673 8055 ft 307 kts 16°
2026-05-04 21:51 43.51210 -79.58631 8034 ft 307 kts 15°
2026-05-04 21:52 43.53189 -79.57622 8015 ft 307 kts 15°
2026-05-04 21:52 43.55192 -79.56612 8017 ft 307 kts 15°
2026-05-04 21:52 43.57173 -79.55618 8010 ft 294 kts 14°
2026-05-04 21:52 43.59036 -79.54661 7890 ft 281 kts 19°
2026-05-04 21:53 43.60625 -79.53061 7420 ft 286 kts 45°
2026-05-04 21:53 43.61971 -79.51040 6948 ft 286 kts 44°
2026-05-04 21:53 43.63339 -79.49035 6471 ft 287 kts 44°
2026-05-04 21:53 43.64711 -79.47028 6009 ft 287 kts 44°
2026-05-04 21:54 43.66061 -79.45060 5556 ft 285 kts 44°
2026-05-04 21:54 43.67423 -79.43070 5112 ft 285 kts 45°
2026-05-04 21:54 43.68782 -79.41083 4703 ft 286 kts 44°
2026-05-04 21:54 43.70166 -79.39063 4265 ft 293 kts 44°
2026-05-04 21:55 43.71559 -79.37027 4006 ft 286 kts 44°
2026-05-04 21:55 43.72895 -79.35110 3969 ft 265 kts 38°
2026-05-04 21:55 43.74489 -79.34059 4014 ft 248 kts 359°
2026-05-04 21:55 43.76082 -79.34424 3900 ft 225 kts 325°
2026-05-04 21:56 43.77433 -79.35449 3761 ft 218 kts 320°
2026-05-04 21:56 43.78503 -79.36756 3492 ft 194 kts 288°
2026-05-04 21:56 43.78704 -79.38486 3282 ft 180 kts 261°
2026-05-04 21:56 43.78613 -79.40217 3136 ft 180 kts 260°
2026-05-04 21:57 43.78515 -79.41946 3028 ft 181 kts 259°
2026-05-04 21:57 43.78355 -79.43663 2991 ft 179 kts 246°
2026-05-04 21:57 43.77728 -79.45142 2980 ft 180 kts 231°
2026-05-04 21:57 43.76951 -79.46441 3021 ft 174 kts 228°
2026-05-04 21:58 43.76142 -79.47688 2843 ft 172 kts 226°
2026-05-04 21:58 43.75325 -79.48900 2655 ft 172 kts 226°
2026-05-04 21:58 43.74503 -79.50106 2432 ft 172 kts 226°
2026-05-04 21:58 43.73689 -79.51297 2211 ft 165 kts 225°
2026-05-04 21:59 43.72943 -79.52387 2004 ft 144 kts 224°
2026-05-04 21:59 43.72297 -79.53329 1860 ft 131 kts 225°
2026-05-04 21:59 43.71669 -79.54244 1674 ft 131 kts 224°
2026-05-04 21:59 43.71052 -79.55142 1501 ft 130 kts 224°
2026-05-04 22:00 43.70428 -79.56045 1325 ft 130 kts 226°
2026-05-04 22:00 43.69812 -79.56957 1101 ft 130 kts 227°
2026-05-04 22:00 43.69187 -79.57873 984 ft 134 kts 225°
2026-05-04 22:00 43.68558 -79.58778 814 ft 129 kts 223°
2026-05-04 22:01 43.67914 -79.59707 631 ft 133 kts 227°
2026-05-04 22:01 43.67327 -79.60567 564 ft 105 kts 226°
2026-05-04 22:01 43.66996 -79.61051 573 ft 36 kts 229°
2026-05-04 22:01 43.66912 -79.61285 568 ft 19 kts 253°
2026-05-04 22:02 43.66895 -79.61424 565 ft 10 kts 275°
2026-05-04 22:02 43.66902 -79.61528 565 ft 11 kts 295°
2026-05-04 22:02 43.66951 -79.61596 568 ft 9 kts 323°
2026-05-04 22:02 43.67008 -79.61582 575 ft 10 kts 43°
2026-05-04 22:03 43.67057 -79.61517 574 ft 10 kts 44°
2026-05-04 22:03 43.67104 -79.61457 575 ft 10 kts 41°
2026-05-04 22:03 43.67170 -79.61374 572 ft 14 kts 43°
2026-05-04 22:03 43.67249 -79.61362 567 ft 14 kts 320°
2026-05-04 22:04 43.67331 -79.61470 571 ft 19 kts 317°
2026-05-04 22:04 43.67440 -79.61610 570 ft 23 kts 316°
2026-05-04 22:04 43.67542 -79.61736 569 ft 16 kts 337°
2026-05-04 22:04 43.67644 -79.61660 564 ft 20 kts 40°
2026-05-04 22:05 43.67743 -79.61518 569 ft 20 kts 46°
2026-05-04 22:05 43.67826 -79.61400 566 ft 14 kts 46°
2026-05-04 22:05 43.67861 -79.61356 571 ft 5 kts 18°
2026-05-04 22:05 43.67915 -79.61338 569 ft 10 kts 28°
2026-05-04 22:06 43.67930 -79.61267 566 ft 7 kts 93°
2026-05-04 22:06 43.67929 -79.61242 571 ft 0 kts 92°